Location: Plainartige
(45.6866°N, 1.7993°E)
Time: 04:33:25
(UTC+00:00)

Vanguard 1 - Pass Details

Date: 25 May 2022
Orbit: 649 x 3833 km, 34.2° (Epoch: 06 July)

Event Time Altitude Azimuth Distance (km) Brightness Sun altitude
Exits shadow 22:20:54 14° 122° (ESE) 4,856 13.1 -20.2°
Drops below altitude 10° 22:27:30 10° 99° (E) 5,811 13.7 -20.7°
Sets 22:36:31 0° 80° (E) 7,477 14.5 -21.2°
